Waarnemingen

Advertentie
Mijn weer
Bierset/Liege, België (6478): temperatuur & dauwpunt: 15.02.2019 15:00:00 - 21.02.2019 15:00:00 (CET)Bierset/Liege, België (6478): windsnelheid & windstoten: 15.02.2019 15:00:00 - 21.02.2019 15:00:00 (CET)Bierset/Liege, België (6478): windrichting: 15.02.2019 15:00:00 - 21.02.2019 15:00:00 (CET)Bierset/Liege, België (6478): luchtdruk: 15.02.2019 15:00:00 - 21.02.2019 15:00:00 (CET)Bierset/Liege, België (6478): zicht: 15.02.2019 15:00:00 - 21.02.2019 15:00:00 (CET)
Datum & Tijd tt [°C] td [°C] ff [km/u] ff [kn] fx [km/u] fx [kn] dd ppp [hPa] vv [km]
21.02.2019 15:00:00 12,5 6,4 18 10 29 16 W 1028,0 10
21.02.2019 14:00:00 11,9 5,6 18 10 29 16 WZW 1028,3 10
21.02.2019 13:00:00 11,9 6,0 16 9 - - WZW 1028,2 10
21.02.2019 12:00:00 10,5 6,2 16 9 25 14 WZW 1028,6 10
21.02.2019 11:00:00 10,1 5,7 18 10 29 16 ZW 1028,2 10
21.02.2019 10:00:00 8,4 4,9 13 7 - - ZZW 1028,0 10
21.02.2019 09:00:00 7,3 4,5 15 8 22 12 ZZW 1027,5 9
21.02.2019 08:00:00 6,6 4,3 13 7 25 14 ZZW 1026,8 9
21.02.2019 07:00:00 7,5 4,4 13 7 - - ZZW 1026,4 9
21.02.2019 06:00:00 7,0 3,8 16 9 32 18 Z 1026,4 10
21.02.2019 05:00:00 6,5 3,6 15 8 29 16 ZZW 1026,7 10
21.02.2019 04:00:00 6,3 3,7 15 8 - - ZZW 1026,9 10
21.02.2019 03:00:00 6,2 3,6 11 6 25 14 ZZW 1026,8 10
21.02.2019 02:00:00 7,7 4,0 13 7 25 14 ZZW 1026,2 10
21.02.2019 01:00:00 7,7 3,6 13 7 - - Z 1025,9 10
21.02.2019 00:00:00 7,6 3,8 11 6 25 14 ZZW 1025,9 10
20.02.2019 23:00:00 7,4 3,3 11 6 18 10 Z 1025,8 18
20.02.2019 22:00:00 7,4 3,4 11 6 - - ZZW 1025,8 20
20.02.2019 21:00:00 7,3 3,3 11 6 18 10 ZZW 1025,5 20
20.02.2019 20:00:00 7,4 2,9 11 6 18 10 ZZW 1025,0 30
20.02.2019 19:00:00 6,7 2,6 11 6 - - ZW 1025,0 30
20.02.2019 18:00:00 8,8 3,1 14 8 25 14 WZW 1024,3 30
20.02.2019 17:00:00 10,7 2,5 18 10 29 16 WZW 1023,9 25
20.02.2019 16:00:00 10,2 3,5 18 10 - - ZW 1023,9 25
20.02.2019 15:00:00 10,3 3,6 18 10 29 16 WZW 1024,0 15
20.02.2019 14:00:00 10,1 3,1 22 12 29 16 WZW 1024,1 10
20.02.2019 13:00:00 9,2 4,4 18 10 - - ZW 1024,3 10
20.02.2019 12:00:00 8,5 4,2 22 12 36 19 ZW 1024,3 10
20.02.2019 11:00:00 7,4 3,6 18 10 29 16 ZZW 1024,1 10
20.02.2019 10:00:00 5,5 2,9 21 11 - - ZZW 1024,0 9
20.02.2019 09:00:00 4,1 2,3 15 8 29 16 Z 1023,6 8
20.02.2019 08:00:00 3,5 1,9 15 8 29 16 Z 1023,2 7
20.02.2019 07:00:00 3,4 1,7 15 8 - - Z 1022,8 9
20.02.2019 06:00:00 3,7 1,7 13 7 29 16 Z 1022,7 9
20.02.2019 05:00:00 4,1 1,8 13 7 22 12 Z 1022,4 10
20.02.2019 04:00:00 4,0 1,5 11 6 - - Z 1022,4 10
20.02.2019 03:00:00 4,2 1,6 11 6 14 8 Z 1022,8 10
20.02.2019 02:00:00 4,5 1,4 11 6 25 14 ZZW 1022,9 10
20.02.2019 01:00:00 4,7 1,7 13 7 - - ZZW 1022,8 10
20.02.2019 00:00:00 5,0 1,3 13 7 22 12 ZZW 1022,6 10
19.02.2019 23:00:00 5,9 1,5 15 8 22 12 ZZW 1022,5 10
19.02.2019 22:00:00 5,7 1,7 13 7 - - ZW 1022,5 10
19.02.2019 21:00:00 6,2 1,8 15 8 18 10 ZW 1022,3 10
19.02.2019 20:00:00 5,8 1,5 13 7 14 8 ZW 1022,3 10
19.02.2019 19:00:00 5,5 2,2 11 6 - - WZW 1022,0 10
19.02.2019 18:00:00 6,8 2,8 9 5 22 12 W 1021,5 10
19.02.2019 17:00:00 8,8 2,9 15 8 32 18 W 1021,2 10
19.02.2019 16:00:00 10,2 2,2 22 12 - - W 1021,1 10
19.02.2019 15:00:00 9,6 2,6 22 12 32 18 W 1021,2 10
19.02.2019 14:00:00 9,5 2,5 26 14 36 19 W 1021,1 10
19.02.2019 13:00:00 9,2 3,1 24 13 - - W 1021,3 10
19.02.2019 12:00:00 8,9 2,4 24 13 32 18 WZW 1021,2 10
19.02.2019 11:00:00 7,8 3,5 22 12 32 18 WZW 1021,2 10
19.02.2019 10:00:00 6,5 4,1 26 14 - - WZW 1021,1 10
19.02.2019 09:00:00 6,4 4,3 18 10 25 14 W 1020,6 10
19.02.2019 08:00:00 6,2 5,1 16 9 22 12 WZW 1019,7 9
19.02.2019 07:00:00 6,2 5,3 15 8 - - ZW 1019,1 7
19.02.2019 06:00:00 6,1 5,3 13 7 18 10 ZW 1018,8 8
19.02.2019 05:00:00 6,5 5,4 13 7 18 10 ZW 1018,4 8
19.02.2019 04:00:00 6,7 5,6 15 8 - - WZW 1018,3 7
19.02.2019 03:00:00 7,0 4,9 16 9 22 12 WZW 1018,2 10
19.02.2019 02:00:00 6,2 3,1 15 8 25 14 WZW 1017,9 10
19.02.2019 01:00:00 7,4 2,1 16 9 - - ZW 1017,5 10
19.02.2019 00:00:00 8,3 1,9 21 11 32 18 ZZW 1017,0 10
18.02.2019 23:00:00 8,4 2,2 21 11 36 19 ZZW 1017,0 10
18.02.2019 22:00:00 8,9 2,2 26 14 - - ZZW 1017,0 10
18.02.2019 21:00:00 8,8 1,7 22 12 32 18 Z 1017,0 10
18.02.2019 20:00:00 9,7 1,5 21 11 29 16 Z 1016,5 10
18.02.2019 19:00:00 10,6 1,7 16 9 - - ZZW 1016,6 10
18.02.2019 18:00:00 12,0 1,2 18 10 29 16 ZZW 1016,2 10
18.02.2019 17:00:00 13,7 0,9 21 11 29 16 ZZW 1015,9 10
18.02.2019 16:00:00 15,1 0,6 15 8 - - Z 1015,9 10
18.02.2019 15:00:00 14,9 0,6 18 10 25 14 Z 1016,0 10
18.02.2019 14:00:00 14,4 0,8 16 9 25 14 Z 1016,7 10
18.02.2019 13:00:00 13,9 1,3 16 9 - - Z 1017,7 10
18.02.2019 12:00:00 12,4 0,2 21 11 32 18 Z 1018,5 10
18.02.2019 11:00:00 10,3 -0,3 18 10 29 16 Z 1019,1 10
18.02.2019 10:00:00 8,9 -0,5 13 7 - - Z 1019,5 10
18.02.2019 09:00:00 7,4 -1,5 13 7 32 18 Z 1019,7 10
18.02.2019 08:00:00 7,2 -1,6 21 11 36 19 ZZO 1019,6 10
18.02.2019 07:00:00 7,0 -1,4 18 10 - - ZZO 1019,8 10
18.02.2019 06:00:00 7,5 -1,6 15 8 29 16 ZZO 1019,9 10
18.02.2019 05:00:00 8,0 -1,7 13 7 18 10 ZZO 1019,7 10
18.02.2019 04:00:00 7,7 -1,8 15 8 - - ZZO 1019,9 10
18.02.2019 03:00:00 8,4 -1,4 13 7 32 18 ZZO 1020,2 10
18.02.2019 02:00:00 9,3 -2,1 16 9 29 16 Z 1020,4 10
18.02.2019 01:00:00 9,9 -2,2 15 8 - - Z 1020,4 10
18.02.2019 00:00:00 9,2 -1,4 16 9 32 18 ZZO 1020,6 10
17.02.2019 23:00:00 9,8 -0,9 15 8 32 18 ZZO 1020,7 10
17.02.2019 22:00:00 10,4 -0,9 15 8 - - Z 1020,7 10
17.02.2019 21:00:00 11,2 -1,4 15 8 32 18 Z 1020,5 10
17.02.2019 20:00:00 11,8 -2,2 15 8 25 14 Z 1020,2 10
17.02.2019 19:00:00 12,6 -2,8 15 8 - - Z 1020,0 10
17.02.2019 18:00:00 13,9 -3,4 21 11 32 18 Z 1019,3 10
17.02.2019 17:00:00 15,3 -4,2 21 11 40 21 Z 1019,2 10
17.02.2019 16:00:00 16,1 -3,0 24 13 - - ZZW 1019,6 10
17.02.2019 15:00:00 17,2 -1,4 22 12 36 19 ZZW 1019,5 10
17.02.2019 14:00:00 15,3 -1,1 21 11 40 21 Z 1020,0 10
17.02.2019 13:00:00 14,4 -0,5 22 12 - - Z 1020,8 10
17.02.2019 12:00:00 13,3 -0,2 18 10 43 23 Z 1021,3 10
17.02.2019 11:00:00 10,2 0,5 22 12 32 18 ZZO 1021,6 10
17.02.2019 10:00:00 8,1 1,1 15 8 - - ZO 1022,3 10
17.02.2019 09:00:00 6,3 0,8 15 8 36 19 ZZO 1022,6 10
17.02.2019 08:00:00 6,5 0,5 16 9 36 19 ZZO 1022,7 10
17.02.2019 07:00:00 6,7 0,6 16 9 - - ZZO 1022,7 10
17.02.2019 06:00:00 7,3 1,0 16 9 25 14 ZZO 1023,1 10
17.02.2019 05:00:00 7,2 1,3 18 10 22 12 ZZO 1023,1 10
17.02.2019 04:00:00 7,1 1,1 16 9 - - ZZO 1023,8 10
17.02.2019 03:00:00 7,5 0,7 16 9 40 21 ZZO 1024,2 10
17.02.2019 02:00:00 7,8 0,0 16 9 25 14 ZZO 1024,7 10
17.02.2019 01:00:00 8,5 0,4 15 8 - - ZZO 1025,0 10
17.02.2019 00:00:00 8,2 -0,4 11 6 29 16 ZZO 1025,5 10
16.02.2019 23:00:00 8,3 0,4 9 5 29 16 ZZO 1025,6 10
16.02.2019 22:00:00 9,9 -0,1 9 5 - - Z 1025,4 10
16.02.2019 21:00:00 10,3 0,5 9 5 14 8 Z 1025,5 10
16.02.2019 20:00:00 11,7 1,0 9 5 11 6 ZZO 1025,6 10
16.02.2019 19:00:00 13,0 0,0 5 3 - - Z 1025,4 10
16.02.2019 18:00:00 13,0 1,0 4 2 14 8 ZZW 1025,4 10
16.02.2019 17:00:00 14,1 1,0 11 6 14 8 ZW 1025,5 10
16.02.2019 16:00:00 14,8 3,0 9 5 - - W 1025,8 10
16.02.2019 15:00:00 15,3 1,8 9 5 22 12 WZW 1025,9 10
16.02.2019 14:00:00 14,3 1,6 13 7 29 16 WZW 1026,3 10
16.02.2019 13:00:00 13,8 1,7 13 7 - - ZW 1026,7 10
16.02.2019 12:00:00 12,1 1,9 18 10 29 16 Z 1027,0 10
16.02.2019 11:00:00 9,8 1,0 16 9 25 14 Z 1027,1 10
16.02.2019 10:00:00 8,3 0,0 16 9 - - Z 1027,2 10
16.02.2019 09:00:00 6,7 -0,5 13 7 25 14 Z 1027,2 10
16.02.2019 08:00:00 6,2 -1,0 11 6 29 16 Z 1026,9 10
16.02.2019 07:00:00 6,2 -0,7 15 8 - - ZZO 1026,4 10
16.02.2019 06:00:00 6,7 -1,0 15 8 32 18 ZZO 1026,4 10
16.02.2019 05:00:00 7,9 -1,1 21 11 29 16 Z 1026,5 10
16.02.2019 04:00:00 7,8 -0,7 18 10 - - ZZO 1026,8 10
16.02.2019 03:00:00 8,0 -0,5 13 7 32 18 Z 1027,1 10
16.02.2019 02:00:00 9,1 -0,5 15 8 32 18 Z 1027,1 10
16.02.2019 01:00:00 9,3 -0,6 15 8 - - Z 1027,2 10
16.02.2019 00:00:00 9,1 -0,7 15 8 32 18 Z 1027,2 10
15.02.2019 23:00:00 10,5 -1,0 18 10 29 16 Z 1027,5 10
15.02.2019 22:00:00 10,3 -0,6 16 9 - - Z 1027,9 10
15.02.2019 21:00:00 10,6 -0,9 16 9 29 16 Z 1028,0 10
15.02.2019 20:00:00 11,8 -2,1 13 7 14 8 Z 1028,1 10
15.02.2019 19:00:00 13,5 -2,8 9 5 - - Z 1028,1 10
15.02.2019 18:00:00 14,9 -2,2 9 5 11 6 Z 1027,9 10
15.02.2019 17:00:00 16,4 0,2 8 4 11 6 ZZW 1027,9 10
15.02.2019 16:00:00 17,5 -2,5 8 4 - - ZZO 1028,6 10
15.02.2019 15:00:00 17,4 -2,2 5 3 14 8 ZZO 1029,2 10

tt = temperatuur
td = dauwpunt
ff = windsnelheid
fx = windstoten
dd = windrichting
ppp = luchtdruk
vv = zicht

Weerstations in de omgeving